Wind_Speed
53 49 43 40 41 43 44 44 43 43 46 48 50 47 41 39 39 34 31 32 30 31 39 37 27 26 25 20 20 23 27 33 36 36 36 36 37 37 33 32 33 32 29 27 28 29 30 30 28 24 22 23 24 25 24 23 22 22 21 21 20 19 19 20 20 20 22 22 22 22 22 23 23 23 23 22 20 19 18 18 19 18 18 18 19 20 20
56 54 49 43 42 44 46 45 39 37 41 46 49 48 43 39 38 34 33 36 35 36 40 36 27 26 28 26 26 25 26 31 34 35 38 38 36 36 35 34 35 35 32 30 31 32 31 30 29 27 25 24 25 25 24 23 22 22 21 20 19 18 17 18 19 20 21 22 21 22 22 23 23 24 24 23 22 20 19 19 19 19 18 17 17 18 19
63 60 54 48 45 45 46 46 44 40 38 41 43 45 44 39 35 36 36 35 35 35 38 38 33 30 31 32 31 28 26 27 30 31 33 35 36 35 35 36 36 36 36 34 33 32 31 31 31 30 29 27 27 26 25 24 23 22 21 20 19 18 17 17 18 18 19 20 20 20 21 22 23 24 25 24 23 22 20 19 19 19 18 17 16 17 19
68 64 58 50 49 51 51 51 52 46 36 33 38 41 43 42 36 35 37 36 37 36 35 38 37 35 37 37 33 30 27 26 28 28 28 30 35 37 37 38 38 38 38 37 35 34 33 33 33 33 32 31 29 28 27 25 25 24 23 21 21 20 18 17 17 16 16 17 18 19 20 21 23 25 26 25 23 22 21 20 20 19 18 17 17 17 17
72 64 60 56 53 55 56 54 53 49 41 35 35 36 39 43 39 35 37 39 41 42 40 38 37 40 42 38 31 29 28 27 28 30 32 34 37 39 40 40 41 40 40 39 38 37 36 36 35 34 33 33 32 31 29 28 27 26 25 24 24 23 21 19 18 17 16 16 16 17 19 21 23 25 26 25 23 22 22 21 21 20 19 18 17 17 16
77 67 62 63 59 56 58 56 51 51 47 38 33 31 33 35 35 34 35 35 38 43 44 41 40 43 45 38 30 28 29 28 27 27 31 34 34 35 36 37 39 41 41 41 39 37 35 35 35 34 33 33 34 33 32 30 29 28 27 27 27 26 25 22 20 19 18 17 16 17 18 20 22 24 25 24 24 23 23 22 21 20 18 18 18 18 17
78 74 67 66 64 59 58 55 50 52 51 44 41 38 30 27 28 30 29 29 35 43 46 46 46 46 45 40 35 32 30 27 24 24 26 28 30 32 32 32 33 36 38 37 35 34 33 33 33 33 33 34 34 34 33 32 31 31 30 30 29 29 29 27 25 23 21 20 19 19 19 20 21 21 23 24 24 24 23 23 21 20 19 19 19 19 19
75 77 73 74 74 66 59 56 53 54 55 50 47 48 43 37 38 39 38 38 40 45 48 50 51 48 44 40 36 35 31 25 22 23 24 25 28 30 30 30 30 31 33 32 31 32 33 32 31 32 32 33 34 34 34 33 33 33 33 32 32 31 31 31 30 27 24 22 21 21 21 22 22 22 23 24 25 25 24 23 22 21 20 20 20 20 20
72 73 75 79 78 70 65 61 56 56 58 54 51 51 52 52 52 50 49 48 47 46 48 50 49 45 41 37 35 34 31 25 23 25 25 25 27 28 28 26 24 25 29 30 31 32 33 32 32 32 32 33 33 34 35 34 34 35 34 33 33 33 33 33 32 31 28 24 22 20 19 21 22 23 24 25 25 25 25 24 23 22 21 21 22 22 21
72 70 70 72 71 71 74 68 56 56 60 58 56 56 57 59 58 54 54 55 51 47 46 46 43 39 36 35 35 34 33 31 32 32 29 28 28 28 27 23 20 21 25 28 29 31 32 32 32 32 32 33 34 35 36 35 35 35 34 34 34 33 34 34 34 33 31 27 23 20 18 18 20 23 25 25 25 26 26 25 24 24 23 23 23 23 22
69 65 65 65 59 56 64 66 61 62 63 60 60 60 59 60 59 55 55 57 55 52 48 45 44 42 39 38 37 38 40 41 38 35 32 31 30 29 27 23 21 21 23 24 25 27 28 28 28 29 30 31 32 33 35 36 36 35 34 34 34 34 35 35 35 35 33 29 25 21 18 17 19 21 24 25 25 26 26 26 25 25 24 24 24 24 24
68 64 61 56 45 37 40 46 49 57 65 65 63 62 61 62 61 58 57 58 58 56 52 48 48 46 43 42 42 44 47 46 40 37 36 35 33 31 28 26 24 24 24 23 23 24 24 24 24 25 26 27 28 29 31 33 34 34 35 36 37 37 37 36 36 37 35 30 27 23 20 18 19 21 23 24 24 24 25 25 25 25 24 23 23 24 25
67 66 64 55 41 32 34 36 38 50 65 70 67 64 65 66 63 62 61 60 59 59 55 53 54 51 47 45 44 46 47 45 42 40 38 37 36 33 30 29 29 28 27 25 25 24 23 23 23 23 23 24 25 25 26 27 28 30 33 36 38 39 39 38 37 38 36 32 28 25 23 21 20 20 21 22 22 22 23 24 24 23 23 22 22 22 23
64 63 64 62 50 37 34 39 46 54 61 64 67 70 70 68 65 66 65 60 58 57 56 54 54 52 48 45 42 42 41 40 39 39 39 38 38 35 33 33 32 31 29 28 27 26 25 25 25 24 24 25 25 26 25 24 24 26 29 32 36 38 39 39 39 38 37 35 31 28 26 24 22 21 20 20 20 20 20 21 22 22 22 22 22 22 23
65 63 63 66 59 42 31 35 45 50 51 55 64 70 70 67 65 67 66 61 56 55 56 55 52 51 50 47 45 43 42 40 39 40 41 40 38 36 36 36 34 32 31 30 29 28 27 27 27 26 26 27 26 26 26 26 26 27 27 28 31 34 36 38 38 38 38 37 34 31 28 26 24 23 22 22 21 20 20 21 22 22 23 23 23 24 24
63 64 64 67 63 47 32 34 44 47 45 49 57 62 65 67 65 63 63 61 56 55 55 55 55 54 53 51 47 45 44 43 41 41 41 40 38 37 38 37 36 35 33 31 30 29 29 29 28 27 27 26 25 25 25 27 28 28 28 27 27 29 32 34 36 38 38 37 36 33 30 28 27 26 25 25 24 23 22 23 23 23 24 25 25 26 27
59 63 65 66 64 54 42 44 55 56 51 52 55 55 57 63 65 62 59 58 57 55 54 54 56 56 55 53 50 47 46 45 43 42 41 40 39 39 40 40 39 37 35 33 31 30 30 30 29 28 27 27 26 25 25 26 27 28 28 27 26 26 28 31 34 35 36 37 36 34 31 30 29 28 27 27 27 26 26 25 25 25 26 27 28 29 29
61 63 66 67 65 60 55 57 64 63 58 60 63 60 56 57 61 62 60 57 56 55 54 55 57 56 55 54 51 48 47 46 44 43 42 41 40 40 41 42 41 39 38 36 34 33 32 32 31 29 29 29 28 27 26 26 27 28 28 28 27 27 28 30 32 32 34 35 35 34 33 32 31 30 29 29 29 28 28 27 27 27 27 28 29 30 30
63 63 63 65 66 67 65 65 66 64 60 61 66 67 63 59 59 60 60 57 56 54 52 53 56 56 56 55 53 50 48 46 45 44 43 43 42 42 42 43 43 42 40 38 36 35 34 34 33 31 30 30 30 29 28 28 27 28 28 28 28 28 28 29 29 30 31 34 34 34 34 34 33 32 31 31 31 30 29 29 29 29 29 30 31 32 33
62 65 63 63 67 71 72 70 69 67 65 63 63 65 65 62 60 58 56 55 55 55 52 51 54 56 56 55 54 52 49 47 46 45 44 44 44 43 43 42 42 43 42 41 39 38 36 36 35 33 32 32 31 30 30 29 29 28 27 28 29 29 28 28 28 29 31 32 33 34 35 36 35 34 33 33 33 32 31 31 31 31 32 33 34 35 36
58 64 65 65 67 72 74 72 70 69 68 67 66 65 63 63 61 58 56 55 56 56 55 53 54 55 56 55 54 52 49 47 47 46 45 45 45 44 43 42 42 42 43 42 41 40 39 39 38 36 34 33 33 32 32 30 30 29 28 28 29 29 29 29 28 29 31 32 34 35 36 36 35 34 33 34 35 34 32 32 33 34 35 35 36 37 38
57 61 64 64 66 69 72 72 70 71 73 74 72 69 67 66 65 62 59 58 58 57 57 56 55 54 54 54 53 52 50 48 48 48 47 46 46 45 43 42 42 42 42 43 43 42 41 40 40 38 37 35 35 35 33 32 31 30 30 30 30 30 30 30 29 30 32 33 35 36 35 34 33 33 34 35 35 35 34 34 35 36 37 38 39 39 40
58 60 62 64 67 70 74 75 76 78 81 82 79 75 72 72 71 68 65 62 59 58 58 58 57 56 55 54 53 52 51 49 48 48 48 48 47 45 43 42 41 42 43 43 43 42 42 41 41 40 39 37 36 36 36 35 34 33 32 32 32 31 31 31 31 32 34 34 36 36 35 34 34 34 35 36 36 37 37 37 37 38 39 40 41 42 43
56 59 63 68 73 76 79 81 83 85 86 85 83 81 78 76 74 72 69 67 64 62 60 59 58 57 56 55 54 52 50 49 48 48 48 49 48 47 45 43 41 42 43 43 43 43 43 42 42 41 40 39 38 38 38 37 36 34 34 33 33 32 32 32 33 34 34 35 36 37 36 36 36 37 38 39 39 39 39 40 40 41 42 42 43 45 47
54 57 62 68 74 77 80 82 84 84 83 84 83 81 79 77 77 75 72 69 67 66 64 62 61 59 58 57 56 54 51 49 48 47 47 49 50 49 47 45 42 42 43 44 44 44 43 44 44 43 42 41 40 40 40 40 38 37 36 35 34 34 34 34 34 35 36 36 37 38 38 38 39 40 40 41 41 42 42 42 43 44 44 45 47 49 50
53 56 60 65 71 75 78 80 80 80 80 82 82 79 77 76 76 75 74 71 69 67 66 65 64 63 61 58 57 56 53 50 48 47 47 48 49 50 49 47 45 43 43 44 44 45 44 44 44 44 44 43 42 42 41 41 40 39 38 37 36 36 36 37 37 37 38 38 39 40 40 41 41 42 42 43 44 44 45 45 46 47 48 49 51 52 53
50 54 58 63 68 73 75 77 77 78 80 82 82 79 77 77 76 75 75 74 71 68 66 65 64 64 62 60 59 57 54 52 50 49 48 47 48 49 49 48 47 46 45 45 45 45 44 44 44 43 43 42 42 42 41 41 41 40 40 39 39 38 38 39 39 39 40 40 40 41 42 42 43 44 44 45 46 46 47 48 49 50 51 52 52 53 54
35 43 50 56 60 65 69 73 74 75 78 82 82 79 78 77 76 76 75 74 72 70 67 66 64 63 62 62 60 58 55 53 52 50 49 50 50 49 48 48 48 47 47 47 46 46 46 45 44 44 43 42 43 42 42 42 42 42 41 41 40 40 40 40 40 41 42 43 43 44 44 45 45 46 46 47 48 49 50 51 52 53 54 54 55 56 57
21 27 36 43 49 53 58 63 67 71 75 78 79 79 78 77 76 75 75 73 72 70 68 66 64 63 62 62 61 59 56 54 53 51 51 51 52 52 51 50 49 48 49 49 48 48 48 47 47 46 44 44 44 43 43 42 42 41 41 41 41 41 41 41 42 43 44 45 46 47 47 48 48 49 50 50 51 52 52 53 55 56 56 57 57 58 58
22 22 24 29 36 43 49 53 58 63 67 71 74 76 76 75 74 74 73 72 71 70 68 66 65 63 62 61 60 59 58 56 55 54 52 52 53 54 54 52 50 50 50 50 49 49 49 48 48 47 47 46 46 45 44 44 44 43 43 43 43 44 44 44 45 45 46 47 48 49 50 51 51 52 53 53 54 54 55 56 57 58 58 58 58 57 57
29 27 26 26 29 36 44 49 52 56 60 65 70 72 72 72 72 71 70 70 70 69 67 66 64 63 62 61 60 59 59 57 55 55 54 54 55 56 55 54 52 52 51 50 50 50 50 49 49 49 49 48 48 48 47 47 47 47 47 47 47 47 47 47 47 47 48 48 49 50 51 51 52 53 54 54 55 55 56 56 57 58 58 58 58 57 57
30 28 28 28 29 34 40 46 51 55 57 60 62 64 65 67 67 66 66 66 65 65 64 64 64 63 62 60 59 58 58 57 56 56 56 56 56 57 56 56 55 54 53 52 52 52 51 51 50 51 51 50 50 50 50 50 49 49 49 49 49 49 49 49 50 50 50 51 51 51 52 52 52 53 53 54 54 55 56 56 57 58 59 59 59 58 58
28 27 26 27 28 30 34 39 43 47 50 51 52 53 55 56 56 56 57 58 58 59 60 60 61 60 58 57 58 58 57 56 55 55 56 56 56 57 57 57 56 56 55 54 54 53 53 52 52 52 51 52 52 52 52 52 52 52 51 51 51 51 52 52 52 52 53 53 53 54 54 54 54 54 54 55 55 56 57 58 59 60 61 61 61 60 60
24 26 26 26 25 24 25 28 32 36 38 40 42 43 43 43 42 41 41 42 44 47 48 50 52 53 52 51 52 52 53 54 55 55 56 56 56 57 58 58 57 56 56 56 56 56 55 54 53 53 53 53 53 53 53 53 53 53 53 53 53 54 54 55 55 55 55 56 56 57 57 57 58 58 58 58 58 58 59 60 61 62 63 63 63 62 61
16 18 20 21 21 20 21 24 28 32 33 34 35 34 31 29 27 27 28 30 33 36 39 40 40 40 41 42 42 41 43 46 48 51 53 54 55 57 58 59 58 57 55 54 55 57 57 56 56 56 55 55 54 55 55 55 55 56 56 56 56 57 57 58 58 57 57 58 58 59 59 60 61 61 61 60 59 59 60 60 62 63 64 64 64 63 63
11 12 13 15 17 18 20 24 29 32 33 33 33 30 27 25 25 27 31 36 38 38 38 35 33 32 34 35 36 37 39 41 42 44 46 47 48 50 52 53 55 57 56 55 55 57 59 60 60 59 58 58 57 57 57 57 58 58 59 59 59 59 59 59 59 59 60 61 61 62 63 63 62 62 61 60 59 60 60 60 61 63 63 63 64 64 64
13 16 15 14 15 17 20 26 32 35 36 37 36 31 28 28 28 30 36 42 42 39 35 32 32 34 35 36 37 38 41 43 43 44 45 46 45 45 46 48 51 53 55 55 57 59 61 62 63 63 62 61 61 60 60 60 60 60 60 60 60 61 61 61 61 62 63 63 64 64 63 63 62 61 61 60 61 61 61 61 62 63 63 64 64 64 63
13 17 17 17 23 32 37 40 42 42 38 34 32 32 32 31 30 32 38 41 40 36 33 34 36 38 39 40 41 42 44 45 45 45 46 47 47 47 48 51 53 54 53 53 54 58 61 63 64 65 64 63 63 62 62 62 62 62 63 62 62 62 62 63 63 64 64 65 65 64 64 63 63 62 61 62 62 62 62 63 64 65 65 64 63 61 60
16 18 19 26 35 40 40 40 41 39 31 25 27 32 32 29 28 32 37 38 37 36 35 37 38 39 41 43 44 43 44 46 47 48 49 50 52 54 57 58 58 56 53 50 51 55 60 63 64 64 64 64 64 64 64 65 65 65 65 64 64 64 64 65 66 66 66 66 65 64 64 64 63 63 63 64 64 64 64 64 65 66 66 64 61 59 58
15 15 15 19 24 24 21 24 30 31 27 25 27 29 28 26 26 28 32 35 36 36 36 36 38 40 42 45 46 45 45 47 49 50 52 54 56 59 62 64 62 57 51 47 48 52 56 60 63 64 65 66 66 67 67 67 67 67 67 66 66 66 67 67 67 67 67 66 66 65 65 65 65 64 65 66 66 66 65 65 65 65 63 60 57 56 56
9 10 10 10 12 15 18 22 24 24 25 27 26 24 23 23 24 26 29 33 36 37 37 36 37 40 44 46 46 47 48 49 48 47 48 51 53 53 53 55 56 51 46 43 45 47 51 55 59 61 63 65 66 68 68 69 69 69 69 69 69 69 69 69 68 68 67 67 67 67 67 68 67 67 67 68 68 67 66 64 62 60 58 56 55 54 54
6 6 7 8 13 18 22 23 23 23 26 27 25 21 20 20 23 26 30 34 36 39 41 38 35 36 41 45 47 48 50 51 51 50 49 49 51 50 48 49 50 49 45 44 45 46 48 51 54 58 60 62 64 66 67 69 69 70 70 70 70 69 69 68 68 67 67 67 67 68 69 69 69 69 69 69 69 66 62 59 57 55 54 54 53 53 53
15 14 13 13 16 21 24 25 27 29 30 28 26 23 20 20 21 24 29 33 35 38 42 42 37 32 32 37 43 46 48 48 50 52 53 53 53 53 52 52 53 52 50 48 48 48 48 49 50 52 55 58 60 61 62 63 64 65 66 66 66 66 66 65 65 65 65 66 67 69 71 72 71 70 70 69 66 61 57 55 54 53 53 53 52 52 52
16 17 19 20 22 25 28 29 31 32 32 30 27 24 22 22 23 24 27 30 32 34 39 43 40 31 24 24 29 35 39 41 43 45 48 50 51 51 51 50 50 51 51 51 51 51 51 52 52 52 53 55 56 57 57 58 58 58 59 60 61 62 64 64 65 66 68 69 70 71 72 72 70 69 68 65 60 56 54 53 52 52 52 52 52 52 53
11 12 15 19 21 25 29 31 32 32 32 30 28 25 22 21 23 24 26 29 30 31 33 35 34 28 22 19 20 24 29 32 34 35 37 38 41 43 45 45 46 47 49 49 49 48 48 50 52 54 55 56 57 58 58 59 60 61 61 62 63 64 66 67 68 68 69 69 70 69 68 67 66 65 62 58 54 52 51 51 51 51 52 53 53 53 54
9 8 8 10 12 14 18 21 23 24 26 27 28 27 25 23 22 23 25 28 30 31 32 32 31 30 27 24 23 23 25 27 28 29 31 32 33 35 36 37 39 41 43 44 44 44 45 45 46 47 49 52 54 56 58 60 61 62 63 63 64 65 65 66 66 66 65 65 65 64 63 63 61 58 54 50 49 49 49 49 51 52 52 53 54 54 54
10 8 6 5 5 6 7 10 12 14 16 19 21 23 24 24 25 25 27 29 30 32 33 33 32 32 31 29 27 26 27 28 28 28 29 30 32 33 33 32 33 35 37 38 38 39 41 42 41 41 41 42 43 46 49 51 53 54 55 55 56 57 57 58 58 59 59 59 59 59 58 56 52 47 44 44 45 47 48 50 50 51 52 53 54 54 54
10 9 8 6 4 2 1 3 4 5 7 9 12 14 16 18 20 23 25 28 29 31 32 33 34 34 33 31 28 27 28 29 30 30 31 31 32 33 35 34 33 34 36 37 36 35 34 34 34 35 35 35 36 37 38 39 40 41 42 42 43 43 43 44 44 45 45 45 46 47 46 43 39 37 38 41 43 46 48 49 50 51 52 52 52 52 52
12 11 10 9 7 6 4 3 2 2 2 3 5 7 9 11 14 16 18 21 23 24 26 28 31 31 31 30 30 29 29 30 30 30 30 31 30 31 33 34 34 33 34 36 36 34 32 31 31 32 32 33 33 34 34 34 35 35 36 36 36 36 36 37 37 37 37 37 38 37 36 34 33 34 38 41 44 46 47 48 48 49 50 50 49 49 49
15 14 13 12 11 10 9 8 7 6 5 4 4 4 5 6 7 9 10 12 14 16 17 18 20 22 24 25 27 28 29 30 30 30 31 31 31 31 32 33 33 33 33 33 33 33 32 32 32 33 33 33 34 34 34 35 35 35 36 36 36 36 36 36 36 35 35 35 35 35 34 33 33 35 39 42 44 45 45 45 46 46 47 47 47 48 48
17 16 16 15 14 13 12 12 11 11 10 9 8 7 7 6 6 6 7 8 8 9 10 11 12 13 15 17 19 21 23 25 27 28 30 30 31 32 33 33 33 33 33 33 33 33 32 32 32 32 32 32 33 33 33 33 34 34 34 34 34 34 34 34 34 34 34 34 33 33 34 34 35 36 38 40 41 42 42 42 43 43 44 44 45 46 46
20 19 19 18 17 16 16 15 14 14 14 14 13 12 12 11 10 9 9 9 9 9 9 9 9 10 11 12 13 14 15 17 18 20 21 22 23 24 25 26 26 27 27 27 28 28 28 28 28 29 29 30 30 30 30 30 31 31 31 31 31 32 32 33 32 32 32 33 33 33 33 34 35 36 37 37 38 39 39 39 40 40 41 42 43 43 44
Wind_Direction
189 192 197 202 209 210 212 213 208 214 222 219 214 214 215 220 220 214 211 212 209 221 234 232 220 215 218 224 231 223 216 221 224 225 230 233 235 240 240 236 238 242 243 240 236 234 235 238 241 239 234 230 230 230 230 232 236 237 240 244 247 250 253 256 256 254 253 253 251 250 251 253 255 256 258 261 261 259 258 262 266 268 270 269 270 271 271
190 194 193 193 202 209 210 208 200 204 217 222 220 214 210 217 221 212 210 216 216 223 237 237 221 212 216 223 232 229 222 226 229 226 228 232 235 241 243 239 238 241 243 243 240 239 240 242 243 243 242 239 237 235 232 231 235 238 238 240 245 247 249 253 255 255 255 254 251 247 248 251 253 254 256 258 259 258 256 258 262 267 270 270 268 267 269
193 198 198 193 195 203 210 208 198 195 209 220 224 220 211 211 218 215 213 216 217 220 236 241 230 220 222 225 229 232 226 226 229 227 229 235 237 238 241 242 240 240 242 244 244 244 244 245 246 247 247 245 243 242 239 237 240 244 244 244 247 249 251 254 256 256 256 255 251 247 247 249 251 253 255 257 259 258 257 258 262 266 269 270 267 265 265
195 199 200 195 194 199 207 210 203 193 194 211 221 222 215 208 212 218 215 216 218 216 225 237 235 229 229 229 230 235 234 231 228 219 215 223 230 231 232 236 238 237 239 242 244 246 246 246 247 248 248 249 249 248 248 247 248 251 253 255 257 256 258 260 259 255 253 254 252 249 248 250 250 252 255 258 260 261 262 262 263 266 269 269 267 265 264
194 197 201 199 197 200 206 212 209 195 185 194 211 222 221 211 208 214 216 217 222 221 221 229 233 234 235 233 232 237 241 241 237 224 215 218 225 227 227 230 233 235 236 238 240 242 244 245 246 247 248 250 252 252 253 254 254 256 259 261 264 264 264 265 262 255 250 250 252 252 252 253 252 254 258 262 263 264 264 264 266 269 272 273 271 269 266
195 194 202 205 201 201 207 210 207 197 186 182 191 210 228 226 214 215 221 224 228 230 227 225 229 236 238 235 231 234 237 240 241 238 234 235 236 237 235 234 235 235 234 237 240 242 244 244 244 245 246 248 251 253 254 256 257 259 261 262 264 267 268 269 267 261 254 252 254 256 257 258 258 259 262 265 265 265 265 266 269 272 275 276 273 270 267
198 195 203 210 207 205 208 208 205 202 196 187 181 185 201 222 216 209 215 222 228 232 230 225 226 232 235 233 232 234 236 238 239 238 239 242 246 248 248 247 246 242 240 243 245 245 246 246 244 244 245 246 249 251 254 257 258 259 260 261 262 264 267 270 271 268 263 258 258 259 259 260 262 263 265 265 266 266 266 266 269 272 274 274 272 270 269
203 199 203 211 212 210 211 210 208 207 203 198 191 183 181 192 201 198 198 203 213 223 227 226 227 229 231 231 231 232 234 234 232 232 231 233 238 243 245 247 248 248 250 253 254 252 251 251 249 248 248 248 249 251 254 257 258 259 260 261 261 262 263 267 271 272 270 267 266 265 261 258 257 259 262 263 264 265 265 265 267 269 271 270 268 267 266
206 204 204 208 211 213 214 213 213 213 208 202 197 191 184 188 195 194 194 199 207 216 222 225 225 226 229 229 227 227 229 228 226 227 226 226 231 235 238 240 240 243 248 252 254 253 253 253 253 252 251 251 252 253 255 256 257 258 259 260 260 260 260 263 268 271 272 274 273 268 262 258 254 253 255 257 259 261 262 263 264 265 265 263 262 262 263
207 207 207 207 210 213 215 214 216 219 214 204 200 198 193 196 203 200 197 202 211 219 225 229 229 228 228 226 221 217 218 220 221 222 222 224 228 230 232 233 233 236 241 242 244 246 248 249 251 251 252 252 253 254 255 256 257 257 258 259 259 259 258 260 263 266 270 273 272 265 261 261 257 252 250 252 255 258 260 260 261 261 262 261 262 263 264
207 208 207 205 206 213 216 215 218 224 221 211 206 205 202 205 212 211 205 208 217 224 227 229 231 228 224 222 217 210 211 217 221 224 228 230 231 231 232 231 229 231 234 235 237 240 243 245 246 247 249 250 251 252 253 255 256 256 256 257 257 257 257 257 258 262 266 270 269 261 256 259 259 254 251 251 253 256 259 261 263 263 264 265 266 266 267
207 205 203 200 200 206 212 213 216 223 225 220 214 210 208 209 212 213 211 212 218 225 227 228 231 229 224 222 216 209 210 216 220 227 233 236 235 234 233 233 230 227 228 229 230 233 236 238 239 240 242 244 246 248 249 250 251 253 253 253 253 254 255 255 255 258 262 265 266 259 252 256 260 256 252 251 253 256 260 263 266 268 269 270 270 270 271
210 207 202 196 194 197 202 204 207 215 221 223 221 216 214 214 215 217 216 216 220 225 225 226 230 231 227 224 216 210 211 214 217 225 233 236 237 235 233 233 231 228 227 226 226 227 228 230 233 234 237 240 242 244 245 245 246 247 246 246 247 250 253 253 253 256 259 262 262 256 249 252 257 257 253 252 253 256 260 265 269 272 274 274 273 273 274
210 210 206 200 195 193 198 205 210 214 217 220 222 221 219 218 219 220 220 221 226 228 225 225 229 231 229 225 217 213 215 215 215 222 227 232 236 236 233 232 230 228 227 226 225 226 226 228 232 234 237 240 242 244 245 245 244 243 240 239 241 244 248 250 251 253 256 260 260 256 249 249 254 257 256 254 254 255 259 263 267 269 271 272 273 273 272
211 210 209 206 201 197 198 205 209 213 215 216 219 221 221 220 220 222 223 224 226 227 226 225 227 228 229 227 220 216 215 213 213 217 221 226 231 234 235 236 234 231 229 227 227 229 229 230 233 236 238 241 242 244 244 243 243 243 242 241 241 242 244 247 248 250 253 256 258 257 251 248 251 254 254 254 255 256 257 259 261 264 267 270 272 273 273
215 213 212 211 206 199 197 204 205 205 208 213 216 219 221 222 221 222 223 223 223 225 224 223 223 225 228 227 222 218 217 215 213 215 219 224 227 231 235 238 237 235 233 230 231 232 232 233 234 235 238 241 243 244 244 243 245 246 246 246 245 245 245 245 246 248 249 251 255 256 252 247 249 252 254 254 255 256 258 259 261 263 265 268 270 272 273
214 215 216 215 210 203 201 209 211 208 207 211 213 216 220 223 223 223 222 221 222 223 223 221 222 223 225 225 223 220 219 218 216 215 218 222 225 229 233 236 237 237 236 235 235 235 236 236 236 236 239 241 243 244 244 244 246 248 249 248 246 245 245 244 245 247 247 248 251 252 249 246 247 250 252 253 254 255 257 259 261 263 265 267 268 270 272
214 215 217 218 214 209 209 214 217 214 212 213 214 214 216 219 222 223 223 222 221 221 222 221 221 222 224 225 224 222 221 221 220 218 219 220 223 227 231 234 236 237 237 237 236 236 237 237 236 237 239 241 243 244 244 245 247 249 250 249 246 243 242 242 244 245 246 247 248 247 245 244 245 247 249 251 253 255 257 259 261 264 267 269 271 273 275
220 218 218 221 219 215 214 217 219 218 217 218 218 217 217 218 219 221 222 222 221 222 223 222 222 223 224 226 226 224 223 223 223 222 222 222 223 227 230 233 235 236 237 238 237 237 237 237 237 237 238 240 241 241 242 244 245 247 248 249 247 244 242 241 242 243 244 245 245 243 242 242 244 246 249 251 253 255 258 260 261 263 268 273 276 278 280
222 221 220 222 223 221 218 218 220 221 222 223 223 222 222 222 221 221 221 221 221 222 223 223 223 224 225 226 227 226 224 224 225 225 225 225 226 228 231 233 235 235 237 237 238 238 239 239 238 237 237 239 239 239 240 242 244 247 248 248 248 247 245 243 241 241 242 243 242 241 242 243 245 248 251 253 255 257 260 262 265 268 272 276 278 278 280
222 222 221 223 225 225 223 222 222 224 225 225 224 223 223 224 224 224 224 224 224 223 223 223 222 223 224 226 227 227 226 226 227 227 228 228 229 231 233 234 234 235 236 237 238 239 240 240 240 238 237 238 239 239 239 240 242 244 246 247 247 247 246 244 241 240 241 242 242 243 245 247 249 251 252 255 258 260 262 264 267 270 272 273 275 276 279
223 223 223 223 225 226 225 225 225 226 226 226 224 223 223 224 224 224 225 226 225 224 223 223 222 222 224 226 227 229 229 229 229 230 231 231 232 234 236 236 235 235 236 237 238 239 240 240 240 239 238 238 239 239 239 240 240 242 243 245 246 246 245 244 242 241 242 242 244 247 249 250 251 253 255 257 260 263 264 265 267 268 270 272 274 276 279
225 225 224 224 225 224 224 224 225 224 224 225 225 224 225 225 226 227 227 227 227 227 227 226 224 223 224 226 228 230 231 231 232 233 233 234 235 236 237 237 236 235 235 237 237 238 239 239 240 240 239 239 239 240 240 240 240 241 242 243 245 246 247 246 243 241 242 243 245 249 251 252 253 256 257 259 261 262 263 265 266 267 270 272 273 276 278
228 227 227 227 227 225 224 225 225 224 223 224 224 225 225 227 228 229 229 229 229 230 230 230 228 226 226 227 229 231 232 233 234 234 235 235 236 236 237 238 236 234 235 236 236 237 237 238 239 240 240 239 239 240 241 242 242 242 243 244 245 247 248 247 245 244 243 244 246 250 252 253 254 256 258 259 261 262 264 265 266 268 269 271 273 275 276
230 229 230 230 231 229 228 227 227 226 225 226 226 226 227 228 229 230 231 231 232 232 232 232 232 231 229 229 230 231 232 234 235 236 237 237 237 237 237 237 236 235 235 236 237 237 237 238 238 239 239 239 239 239 241 242 243 243 243 244 245 247 248 248 248 247 246 246 247 249 251 252 254 256 258 260 261 263 264 265 266 267 268 270 271 272 273
231 230 231 232 232 231 231 230 230 230 230 230 230 228 229 230 231 232 232 233 233 233 234 234 235 235 234 233 232 232 232 234 235 236 237 238 239 239 238 237 237 236 235 236 237 238 238 238 239 239 239 239 239 240 241 243 244 244 244 244 244 246 247 248 248 248 248 248 249 250 251 253 254 256 257 259 261 262 263 264 265 266 267 268 269 271 272
233 233 234 234 234 233 233 232 232 232 232 232 231 230 230 230 231 232 234 234 234 235 235 236 237 237 237 236 235 233 233 234 235 236 237 239 239 239 239 238 238 238 237 237 238 239 240 239 239 239 239 239 239 239 239 240 241 242 242 242 243 244 246 248 249 250 250 251 251 252 253 253 254 256 257 258 259 260 261 263 264 265 266 268 269 270 272
234 232 234 235 236 237 236 235 234 234 234 234 233 231 231 231 231 233 234 235 235 235 236 237 238 239 240 240 238 236 234 235 235 236 236 238 239 239 239 238 238 238 238 237 237 239 239 240 240 239 239 238 239 239 239 239 240 241 241 242 243 244 246 248 249 250 251 251 251 252 253 253 254 255 256 257 258 259 260 261 263 264 266 267 269 270 271
227 227 228 230 232 234 235 235 236 235 236 236 235 234 234 233 233 234 235 236 237 237 237 237 237 239 241 242 241 240 237 235 235 236 235 237 239 240 240 239 238 237 237 238 238 238 239 239 240 240 239 239 239 239 239 240 240 241 241 242 242 244 245 247 248 249 250 250 251 252 253 254 255 255 256 257 258 259 260 262 263 265 266 268 269 270 271
218 215 215 218 222 225 228 231 234 235 236 236 237 237 236 236 236 237 237 238 238 238 238 238 238 238 240 241 242 243 241 238 237 237 236 236 238 240 241 241 240 238 238 238 238 238 239 239 240 240 240 241 241 240 240 240 240 240 241 241 241 242 243 244 246 247 248 249 250 251 252 253 254 255 257 258 259 260 261 263 264 265 266 267 268 269 269
215 209 203 204 210 215 219 223 227 230 233 234 235 236 237 237 238 239 239 240 241 241 241 241 241 240 239 240 241 242 243 242 240 239 238 237 237 239 241 242 242 241 240 239 238 238 239 239 239 239 240 240 241 241 241 241 242 242 242 243 243 244 244 245 246 246 247 248 249 250 251 252 254 255 256 258 259 260 261 262 263 264 265 266 267 268 269
213 208 202 198 201 208 213 217 221 225 229 232 233 235 236 237 239 240 240 241 242 243 243 244 243 242 241 241 241 241 242 242 242 241 240 239 238 238 239 241 242 243 243 242 240 240 240 239 239 239 239 240 240 241 242 243 244 244 244 245 245 245 246 246 246 247 248 249 249 251 251 252 253 254 256 257 258 259 260 261 263 264 265 267 268 270 272
207 206 204 201 202 207 211 213 217 222 226 228 230 231 233 235 236 238 240 241 243 244 245 245 245 245 244 244 244 243 242 241 241 242 242 240 239 239 239 240 241 242 243 244 243 242 242 242 241 241 242 241 241 242 242 243 243 244 244 245 246 247 247 247 247 248 249 249 250 251 252 253 254 255 256 258 259 261 262 263 264 266 267 269 271 273 274
199 201 202 203 206 209 208 209 210 212 214 217 220 222 225 227 229 231 234 236 238 241 242 242 243 244 244 244 245 245 244 243 242 241 242 241 240 239 239 240 240 240 241 242 243 243 243 243 243 242 242 242 241 242 242 242 243 244 245 245 247 248 248 249 249 250 250 250 251 251 252 253 255 256 257 259 260 262 263 264 266 267 269 271 273 274 276
187 193 198 201 204 206 205 200 195 192 194 199 202 202 202 204 207 211 215 216 218 224 230 235 238 239 239 239 239 238 238 239 238 239 240 240 238 238 239 240 240 241 241 240 241 241 241 241 240 240 240 240 240 240 240 240 241 242 243 244 245 246 247 248 249 250 251 252 252 253 253 254 254 255 257 259 261 263 264 265 267 269 270 272 274 276 276
152 166 185 197 201 203 201 190 178 174 176 177 173 170 172 175 180 190 198 201 205 213 222 228 229 226 226 227 228 226 227 228 229 231 235 235 233 234 238 239 238 239 240 240 240 239 238 237 237 237 238 239 240 240 240 240 240 241 242 243 245 246 247 249 250 251 251 252 253 253 254 254 256 257 259 261 262 263 264 266 267 269 271 273 275 276 277
136 153 165 181 185 179 174 167 158 153 153 155 155 159 169 176 181 190 200 204 207 214 218 216 213 213 212 212 214 218 222 223 224 228 233 236 235 235 238 240 238 237 238 239 239 237 236 235 234 235 235 236 237 239 239 240 240 241 242 243 245 246 248 249 250 251 252 253 254 255 256 257 258 259 260 261 263 264 265 266 268 269 271 274 275 276 276
122 146 153 164 161 151 145 143 142 141 144 152 164 174 179 180 185 197 206 208 207 208 207 204 204 207 208 206 208 214 220 223 224 226 229 234 236 235 236 238 239 238 238 238 238 236 234 233 232 233 234 235 237 238 239 240 241 242 243 244 246 247 248 250 251 252 253 254 255 257 258 258 259 260 261 262 263 264 266 267 269 270 273 275 275 275 276
98 114 128 144 148 142 137 140 146 147 147 159 176 182 182 182 187 195 202 204 203 202 203 204 205 207 206 203 205 212 219 223 225 226 227 231 236 237 237 238 238 237 235 235 235 234 232 232 232 233 234 235 237 238 239 240 242 243 245 246 247 248 249 251 252 253 254 256 257 258 259 261 262 262 262 263 264 266 267 269 270 273 275 276 275 274 275
81 82 97 127 140 139 138 147 155 155 155 163 172 176 178 184 189 191 194 199 201 200 202 205 206 205 204 203 203 208 215 218 219 221 223 226 229 231 232 233 233 231 230 231 233 232 231 231 232 233 235 236 237 239 240 241 243 244 245 247 248 249 251 252 254 255 257 258 260 261 262 263 263 263 263 264 265 266 267 269 272 274 276 276 274 273 274
69 63 69 101 136 150 152 152 153 155 158 164 170 175 182 193 202 202 199 198 198 197 200 206 207 204 203 205 208 211 214 216 217 218 220 222 223 224 223 223 224 225 229 233 236 235 234 234 235 235 236 237 239 240 242 243 245 246 247 248 250 251 253 255 256 258 260 261 262 263 263 263 263 264 264 265 265 267 268 270 272 274 274 274 273 274 275
116 108 106 123 146 159 161 160 159 158 158 163 173 187 198 207 213 211 206 204 203 201 204 210 213 208 204 206 210 214 216 219 222 224 226 228 232 235 235 233 231 232 234 237 239 238 237 236 237 238 239 240 241 243 244 246 247 249 250 251 253 254 256 258 259 261 262 263 263 264 264 264 264 264 264 265 266 267 269 270 272 272 272 273 274 275 277
128 140 148 150 155 163 169 170 169 167 167 172 184 199 211 215 213 208 206 208 210 209 209 213 219 219 211 207 209 212 215 218 220 222 226 230 235 237 239 239 239 239 239 240 241 240 239 239 240 241 242 243 243 245 246 248 250 251 252 253 255 256 258 259 260 262 263 263 264 263 263 262 261 261 262 263 264 266 267 269 270 270 272 274 276 277 278
115 133 146 152 160 169 175 177 175 175 179 188 200 210 217 219 218 214 210 209 210 211 211 214 220 225 223 217 215 215 215 216 217 219 222 225 228 229 230 230 232 234 236 236 236 235 236 239 243 246 248 249 249 249 250 252 254 255 256 257 258 259 259 260 261 261 261 261 260 259 258 258 258 259 260 261 261 263 266 268 269 271 274 276 277 278 278
92 117 136 147 156 166 174 179 181 181 185 193 202 209 215 218 221 222 221 219 218 217 215 216 219 223 227 235 238 230 221 219 220 222 223 223 223 223 224 225 226 228 229 229 227 227 229 232 235 238 242 245 248 250 252 254 256 257 258 258 258 258 258 258 257 257 256 256 257 257 258 259 259 258 257 257 259 262 265 267 270 272 274 275 276 277 278
56 78 107 130 146 159 170 179 185 188 191 195 199 202 207 213 219 223 226 229 230 229 228 229 231 232 236 247 255 248 235 228 226 226 228 229 228 227 228 229 231 232 232 231 231 231 232 234 235 237 238 240 241 243 245 247 249 251 252 253 254 254 255 255 255 256 257 258 258 259 258 257 255 253 253 255 258 262 265 268 270 272 273 274 275 276 277
20 30 47 79 117 144 162 175 181 187 193 196 198 199 201 205 210 216 222 228 233 236 239 242 243 244 247 251 252 247 242 238 235 232 231 231 232 231 231 231 233 235 237 238 238 238 238 239 241 244 245 246 245 245 245 247 248 249 250 251 252 253 254 254 255 255 255 255 255 253 252 250 250 251 254 258 261 264 267 269 271 271 272 274 275 275 276
346 352 359 8 22 44 133 180 187 192 196 197 198 200 202 203 205 209 215 221 227 232 237 241 243 245 246 245 243 241 240 240 240 239 237 234 234 235 233 231 233 236 237 237 239 240 241 241 241 242 244 246 246 246 246 247 248 249 249 250 250 251 251 252 252 252 252 252 252 251 250 250 252 256 260 262 265 267 269 270 271 271 272 273 274 275 275
323 325 327 328 330 330 328 316 292 278 258 226 213 212 212 212 212 212 213 217 221 225 228 232 235 237 239 239 240 241 243 243 243 241 238 235 235 235 235 235 237 240 239 237 236 238 240 242 244 246 248 248 248 249 250 251 252 252 252 252 252 252 252 252 253 254 255 256 257 257 257 258 260 262 264 265 266 267 268 268 269 270 271 271 273 274 274
309 311 311 311 310 307 306 305 301 297 292 283 270 254 240 233 231 229 226 226 228 230 232 233 234 235 237 238 240 243 244 244 243 242 239 235 234 235 236 237 240 242 242 241 241 242 244 248 250 252 253 253 254 255 255 256 256 256 256 256 256 256 257 258 260 261 262 263 264 265 266 267 267 266 265 265 265 266 266 267 267 268 269 270 271 272 272
296 298 300 301 301 299 298 297 298 297 295 290 283 276 269 263 258 252 245 241 240 241 242 244 243 242 242 242 243 244 244 243 242 241 240 237 236 237 240 241 243 244 245 245 246 248 250 251 252 253 254 256 257 257 258 259 259 260 260 261 262 263 263 265 267 268 268 269 269 270 270 270 269 268 267 266 266 266 267 267 267 268 269 269 270 270 271
287 287 288 289 290 291 290 288 287 288 290 289 288 285 282 276 271 265 261 258 254 251 248 247 246 245 247 248 248 248 248 246 245 244 243 242 242 243 244 246 247 249 250 251 252 253 254 255 256 257 259 260 261 263 264 264 265 265 266 267 267 268 268 269 270 270 270 270 270 270 270 270 269 268 267 267 268 268 269 269 270 270 271 270 270 271 271
Height
5736 5739 5744 5750 5754 5758 5761 5766 5773 5778 5780 5785 5789 5793 5799 5802 5805 5810 5814 5816 5817 5817 5816 5819 5825 5828 5829 5830 5830 5832 5833 5834 5835 5839 5841 5843 5845 5846 5849 5853 5855 5857 5860 5864 5867 5870 5871 5873 5875 5878 5880 5883 5885 5887 5889 5891 5893 5895 5896 5898 5899 5901 5902 5903 5904 5906 5906 5907 5908 5909 5910 5911 5912 5913 5913 5914 5915 5916 5917 5917 5917 5918 5919 5919 5919 5919 5919
5728 5732 5738 5744 5749 5754 5756 5760 5769 5776 5778 5781 5785 5791 5796 5799 5802 5807 5811 5813 5815 5815 5813 5817 5824 5826 5827 5827 5826 5828 5831 5832 5833 5837 5839 5841 5844 5846 5848 5851 5853 5855 5858 5861 5864 5867 5869 5871 5873 5875 5878 5880 5882 5885 5887 5889 5891 5893 5895 5896 5898 5899 5901 5901 5902 5903 5904 5904 5906 5907 5908 5909 5909 5910 5910 5911 5912 5913 5914 5914 5915 5915 5916 5916 5917 5917 5917
5723 5730 5735 5739 5744 5750 5753 5756 5762 5769 5776 5779 5781 5787 5793 5797 5799 5802 5807 5809 5812 5813 5812 5813 5820 5824 5823 5822 5824 5827 5830 5831 5832 5836 5839 5840 5843 5845 5847 5848 5851 5853 5855 5858 5861 5864 5867 5869 5871 5873 5875 5877 5880 5882 5884 5887 5889 5890 5892 5894 5896 5897 5899 5899 5900 5901 5901 5902 5903 5904 5905 5906 5907 5907 5908 5908 5909 5910 5911 5912 5912 5913 5913 5914 5914 5915 5915
5723 5730 5734 5736 5739 5742 5745 5750 5755 5763 5772 5778 5780 5782 5787 5793 5795 5798 5803 5805 5807 5810 5811 5810 5815 5819 5818 5819 5823 5825 5828 5830 5832 5835 5838 5839 5839 5842 5844 5845 5847 5850 5852 5855 5858 5861 5863 5866 5868 5871 5873 5875 5877 5879 5882 5884 5886 5888 5890 5892 5894 5895 5897 5898 5898 5898 5899 5899 5900 5902 5903 5904 5904 5904 5905 5906 5907 5908 5909 5910 5910 5910 5911 5911 5912 5913 5913
5718 5726 5727 5727 5730 5735 5740 5746 5752 5758 5765 5773 5779 5781 5783 5788 5793 5795 5798 5800 5802 5806 5809 5808 5810 5813 5814 5818 5822 5825 5826 5828 5830 5832 5834 5834 5834 5837 5839 5841 5843 5846 5849 5852 5855 5857 5860 5863 5866 5868 5870 5873 5875 5877 5879 5881 5884 5886 5888 5889 5891 5892 5894 5895 5896 5897 5897 5897 5898 5899 5900 5901 5901 5902 5902 5904 5905 5906 5907 5907 5907 5908 5909 5910 5910 5911 5911
5711 5718 5720 5720 5724 5731 5736 5742 5749 5755 5760 5767 5775 5779 5781 5785 5790 5793 5796 5799 5800 5802 5805 5807 5807 5808 5811 5816 5821 5822 5823 5825 5828 5830 5831 5832 5832 5833 5836 5838 5840 5843 5846 5849 5851 5854 5857 5860 5863 5865 5868 5870 5872 5874 5876 5879 5881 5884 5885 5887 5889 5890 5891 5893 5894 5895 5895 5896 5896 5897 5898 5898 5899 5900 5900 5901 5902 5903 5904 5904 5905 5906 5907 5907 5908 5908 5909
5704 5711 5714 5715 5721 5728 5732 5738 5746 5751 5755 5759 5765 5772 5779 5784 5788 5791 5795 5798 5796 5794 5797 5801 5803 5804 5808 5813 5817 5819 5821 5824 5827 5828 5829 5831 5832 5832 5834 5836 5838 5841 5843 5845 5849 5852 5855 5858 5860 5863 5865 5868 5869 5871 5873 5876 5879 5881 5883 5884 5886 5888 5889 5890 5891 5892 5893 5894 5894 5895 5895 5896 5897 5898 5898 5899 5899 5900 5901 5902 5903 5904 5904 5905 5905 5906 5906
5697 5704 5706 5709 5718 5726 5730 5735 5741 5744 5750 5756 5760 5765 5771 5777 5781 5784 5788 5790 5787 5786 5789 5793 5797 5801 5806 5811 5814 5816 5819 5823 5825 5826 5827 5829 5830 5831 5832 5834 5836 5839 5842 5844 5847 5850 5853 5855 5858 5860 5862 5865 5867 5869 5871 5873 5875 5878 5880 5882 5884 5885 5886 5887 5888 5889 5890 5891 5892 5892 5893 5894 5894 5895 5896 5896 5897 5897 5899 5900 5900 5901 5902 5903 5903 5904 5904
5690 5697 5701 5706 5715 5721 5724 5730 5735 5737 5745 5753 5758 5762 5764 5765 5769 5775 5780 5781 5779 5781 5784 5787 5792 5799 5804 5808 5812 5815 5819 5822 5823 5823 5824 5825 5827 5828 5829 5831 5834 5837 5840 5842 5845 5847 5850 5852 5854 5857 5859 5862 5864 5866 5868 5870 5872 5874 5876 5879 5881 5882 5884 5884 5885 5886 5887 5889 5889 5889 5890 5891 5892 5893 5893 5893 5894 5895 5896 5897 5898 5899 5899 5900 5901 5902 5902
5685 5691 5697 5704 5710 5713 5718 5726 5730 5730 5737 5746 5752 5756 5758 5757 5761 5767 5772 5774 5774 5777 5781 5785 5790 5796 5802 5805 5809 5813 5816 5816 5816 5817 5820 5821 5823 5824 5825 5829 5833 5836 5838 5839 5842 5844 5846 5848 5851 5853 5856 5858 5861 5863 5865 5867 5869 5871 5873 5876 5877 5879 5880 5882 5882 5883 5884 5886 5886 5887 5888 5888 5889 5889 5890 5890 5891 5892 5893 5894 5895 5896 5897 5898 5899 5900 5901
5682 5688 5693 5701 5708 5712 5716 5723 5725 5724 5729 5739 5745 5749 5754 5755 5757 5762 5766 5770 5771 5773 5777 5781 5785 5790 5797 5800 5803 5807 5809 5808 5810 5814 5817 5818 5820 5822 5825 5828 5831 5833 5835 5837 5839 5841 5843 5846 5848 5850 5853 5855 5857 5860 5862 5863 5864 5867 5870 5872 5873 5875 5877 5878 5879 5880 5881 5883 5884 5884 5885 5886 5886 5886 5887 5887 5888 5889 5890 5892 5893 5894 5895 5896 5897 5898 5899
5677 5683 5689 5697 5705 5709 5710 5715 5719 5719 5723 5731 5739 5745 5749 5749 5751 5757 5762 5765 5765 5767 5774 5779 5780 5785 5790 5792 5795 5799 5802 5804 5809 5813 5814 5816 5818 5821 5824 5827 5829 5831 5833 5834 5837 5839 5841 5843 5845 5847 5849 5851 5853 5855 5857 5858 5860 5863 5866 5868 5869 5871 5872 5874 5876 5877 5878 5880 5881 5882 5883 5883 5883 5884 5884 5885 5886 5887 5888 5889 5890 5891 5893 5894 5895 5896 5897
5673 5679 5684 5690 5697 5702 5703 5705 5708 5711 5715 5722 5729 5736 5739 5742 5747 5752 5755 5756 5758 5763 5770 5774 5774 5778 5783 5786 5791 5797 5800 5804 5809 5811 5812 5814 5816 5819 5822 5824 5826 5828 5830 5832 5834 5836 5838 5841 5842 5844 5846 5848 5850 5852 5853 5854 5857 5858 5860 5862 5864 5866 5868 5870 5872 5874 5875 5877 5878 5879 5880 5880 5881 5881 5881 5882 5883 5884 5886 5887 5888 5889 5890 5891 5893 5894 5895
5669 5676 5680 5683 5688 5694 5697 5699 5701 5704 5708 5712 5718 5724 5730 5737 5743 5745 5746 5751 5756 5760 5765 5769 5771 5775 5780 5785 5791 5797 5800 5805 5807 5808 5810 5812 5813 5816 5818 5820 5822 5825 5827 5829 5832 5834 5836 5838 5840 5841 5843 5845 5847 5848 5850 5852 5853 5854 5855 5857 5860 5862 5863 5866 5868 5870 5871 5873 5875 5876 5877 5877 5878 5879 5879 5880 5880 5881 5883 5884 5885 5886 5887 5888 5889 5891 5892
5663 5669 5673 5676 5682 5689 5693 5694 5696 5699 5702 5704 5710 5717 5723 5728 5732 5735 5740 5748 5753 5755 5760 5765 5769 5773 5777 5781 5787 5791 5795 5799 5801 5803 5805 5808 5810 5812 5814 5816 5819 5821 5824 5826 5828 5831 5833 5835 5837 5839 5840 5842 5844 5845 5847 5849 5850 5851 5852 5854 5856 5857 5859 5861 5863 5866 5868 5869 5871 5872 5873 5874 5875 5876 5876 5877 5878 5878 5880 5881 5882 5883 5884 5885 5886 5887 5888
5659 5663 5666 5670 5677 5684 5684 5682 5684 5691 5696 5700 5707 5713 5716 5719 5725 5730 5736 5743 5748 5751 5757 5762 5765 5768 5771 5776 5782 5786 5790 5794 5797 5799 5802 5805 5807 5809 5810 5812 5815 5817 5820 5823 5825 5827 5829 5832 5834 5835 5837 5839 5841 5842 5844 5845 5846 5848 5849 5851 5853 5854 5855 5857 5859 5861 5863 5865 5867 5868 5870 5871 5872 5872 5873 5874 5875 5875 5877 5878 5879 5880 5881 5882 5882 5883 5883
5650 5654 5658 5663 5671 5676 5673 5672 5677 5686 5691 5696 5702 5707 5710 5714 5721 5726 5732 5738 5743 5749 5753 5757 5760 5764 5767 5771 5776 5781 5785 5789 5793 5797 5800 5802 5805 5806 5807 5809 5811 5814 5817 5819 5821 5824 5826 5828 5830 5832 5834 5836 5837 5839 5841 5842 5843 5844 5846 5848 5850 5851 5852 5853 5855 5856 5859 5861 5863 5864 5866 5867 5868 5869 5869 5870 5871 5872 5873 5874 5875 5876 5877 5878 5878 5878 5879
5643 5648 5652 5657 5665 5669 5667 5667 5675 5683 5687 5690 5694 5700 5706 5712 5718 5723 5729 5734 5739 5744 5748 5752 5756 5760 5763 5767 5772 5776 5781 5785 5789 5793 5796 5799 5801 5802 5803 5805 5808 5810 5813 5815 5818 5820 5822 5824 5826 5828 5830 5832 5833 5835 5837 5838 5840 5841 5842 5844 5846 5847 5848 5849 5850 5852 5854 5857 5859 5860 5861 5862 5863 5864 5865 5866 5867 5868 5869 5870 5871 5872 5872 5873 5873 5874 5875
5639 5645 5649 5652 5657 5660 5661 5664 5672 5680 5684 5687 5692 5698 5704 5709 5714 5719 5724 5730 5735 5739 5744 5748 5753 5756 5759 5763 5767 5772 5777 5781 5784 5787 5791 5794 5796 5797 5799 5801 5804 5807 5809 5812 5814 5816 5818 5820 5823 5825 5827 5828 5830 5831 5833 5834 5836 5837 5839 5841 5842 5843 5844 5845 5847 5849 5850 5852 5854 5856 5857 5858 5859 5860 5861 5862 5863 5864 5865 5866 5867 5867 5868 5868 5869 5869 5869
5633 5638 5643 5646 5647 5650 5655 5663 5670 5676 5680 5684 5691 5698 5703 5706 5710 5715 5719 5724 5729 5734 5739 5745 5749 5752 5755 5759 5763 5767 5772 5776 5779 5782 5785 5788 5791 5793 5795 5797 5800 5803 5805 5808 5810 5813 5815 5816 5818 5821 5823 5824 5826 5827 5829 5830 5832 5834 5835 5837 5838 5839 5841 5842 5843 5845 5846 5848 5850 5851 5852 5853 5853 5855 5857 5858 5858 5860 5861 5862 5862 5863 5863 5863 5863 5864 5864
5625 5630 5636 5640 5642 5647 5656 5664 5670 5673 5675 5679 5685 5693 5698 5701 5706 5711 5715 5719 5725 5730 5735 5740 5745 5748 5752 5755 5759 5762 5767 5771 5774 5777 5780 5783 5786 5788 5790 5793 5796 5799 5801 5804 5806 5809 5810 5812 5814 5817 5819 5820 5822 5824 5825 5827 5828 5830 5832 5833 5834 5835 5837 5838 5839 5841 5842 5844 5845 5846 5847 5848 5849 5852 5853 5853 5854 5855 5857 5857 5857 5858 5858 5858 5858 5859 5859
5621 5625 5631 5636 5640 5646 5652 5659 5663 5665 5666 5670 5677 5684 5689 5694 5700 5705 5710 5715 5720 5725 5730 5735 5741 5745 5748 5751 5755 5758 5763 5767 5770 5772 5775 5778 5781 5783 5786 5788 5791 5794 5797 5799 5802 5804 5806 5808 5810 5812 5815 5817 5818 5820 5821 5823 5824 5826 5827 5829 5830 5832 5833 5834 5836 5837 5838 5839 5840 5841 5843 5844 5846 5847 5848 5849 5850 5851 5852 5852 5852 5852 5853 5853 5853 5853 5853
5618 5622 5626 5629 5632 5635 5640 5645 5648 5650 5654 5661 5669 5677 5684 5689 5694 5699 5705 5711 5716 5720 5725 5731 5736 5741 5745 5748 5751 5754 5758 5762 5765 5768 5771 5773 5776 5778 5781 5784 5787 5790 5792 5795 5797 5799 5801 5803 5805 5808 5810 5812 5814 5815 5817 5818 5819 5821 5823 5824 5826 5828 5829 5831 5832 5832 5833 5835 5836 5836 5838 5840 5842 5842 5843 5844 5845 5846 5846 5847 5847 5847 5847 5848 5848 5848 5848
5613 5616 5619 5621 5623 5628 5633 5637 5639 5644 5651 5658 5664 5672 5680 5685 5690 5695 5700 5706 5711 5716 5721 5726 5731 5737 5741 5744 5747 5751 5754 5757 5760 5763 5766 5768 5771 5774 5776 5779 5782 5785 5788 5790 5793 5795 5797 5799 5801 5803 5805 5807 5809 5810 5812 5813 5815 5817 5818 5820 5821 5823 5825 5826 5827 5828 5829 5830 5831 5832 5834 5836 5837 5837 5838 5839 5840 5840 5841 5842 5842 5842 5842 5843 5842 5842 5842
5607 5611 5614 5617 5620 5625 5630 5633 5637 5645 5652 5656 5660 5669 5677 5680 5684 5690 5695 5700 5706 5711 5716 5721 5726 5730 5736 5740 5744 5747 5750 5753 5756 5759 5761 5764 5766 5769 5772 5775 5777 5780 5783 5785 5788 5790 5793 5794 5796 5798 5800 5802 5804 5805 5806 5808 5810 5812 5813 5815 5817 5818 5820 5821 5822 5823 5824 5825 5826 5827 5829 5830 5831 5832 5833 5833 5834 5835 5836 5836 5836 5837 5837 5837 5837 5837 5837
5599 5605 5608 5611 5614 5620 5626 5631 5637 5643 5648 5650 5655 5665 5672 5675 5679 5685 5690 5695 5701 5705 5710 5715 5720 5724 5730 5735 5739 5742 5746 5749 5752 5754 5756 5758 5761 5764 5767 5770 5773 5775 5778 5780 5782 5785 5787 5789 5791 5793 5795 5797 5799 5801 5802 5804 5806 5807 5809 5810 5812 5813 5815 5816 5817 5818 5819 5820 5821 5822 5824 5825 5826 5827 5828 5828 5829 5829 5830 5830 5831 5831 5832 5832 5832 5831 5831
5593 5598 5601 5604 5609 5615 5622 5627 5632 5638 5640 5642 5648 5658 5665 5670 5675 5680 5684 5689 5696 5701 5706 5710 5714 5719 5724 5728 5732 5737 5741 5744 5747 5749 5751 5753 5755 5758 5762 5765 5768 5771 5773 5775 5777 5780 5782 5785 5787 5789 5791 5793 5794 5796 5797 5799 5801 5802 5804 5805 5807 5808 5809 5811 5812 5813 5814 5816 5816 5817 5818 5819 5820 5821 5822 5822 5823 5823 5824 5825 5825 5825 5825 5825 5825 5825 5824
5588 5592 5595 5599 5605 5611 5616 5621 5627 5632 5635 5638 5644 5653 5659 5664 5669 5674 5678 5683 5690 5696 5701 5706 5710 5714 5717 5721 5725 5731 5735 5739 5742 5744 5746 5747 5749 5753 5756 5759 5762 5765 5768 5770 5772 5774 5776 5779 5781 5783 5785 5787 5788 5790 5792 5794 5795 5797 5798 5800 5802 5803 5804 5806 5807 5808 5809 5810 5811 5811 5812 5813 5814 5815 5816 5817 5817 5818 5818 5819 5818 5818 5819 5819 5819 5818 5817
5584 5587 5589 5594 5599 5604 5608 5614 5621 5626 5630 5635 5641 5647 5652 5657 5663 5668 5673 5678 5683 5689 5695 5700 5705 5708 5711 5715 5719 5724 5729 5733 5736 5738 5740 5743 5745 5747 5749 5752 5756 5759 5761 5763 5766 5768 5771 5773 5775 5778 5779 5781 5783 5785 5787 5789 5790 5792 5794 5795 5797 5798 5799 5800 5801 5802 5803 5803 5804 5805 5806 5807 5808 5808 5809 5810 5811 5811 5812 5812 5811 5811 5812 5813 5812 5811 5810
5579 5581 5584 5587 5591 5596 5601 5608 5614 5620 5626 5631 5635 5640 5646 5652 5658 5662 5667 5673 5678 5683 5688 5693 5698 5703 5706 5710 5713 5717 5721 5726 5730 5732 5735 5738 5740 5740 5742 5746 5750 5752 5754 5757 5760 5763 5765 5767 5770 5772 5774 5775 5777 5779 5781 5782 5784 5786 5788 5789 5790 5791 5792 5793 5794 5796 5797 5797 5798 5799 5800 5800 5801 5802 5803 5803 5804 5805 5806 5806 5805 5805 5805 5805 5805 5804 5804
5573 5575 5578 5581 5585 5589 5595 5601 5606 5612 5618 5623 5628 5635 5642 5648 5652 5657 5662 5667 5671 5676 5681 5686 5691 5696 5700 5704 5708 5711 5714 5719 5723 5726 5729 5731 5733 5735 5738 5741 5744 5746 5749 5752 5754 5756 5758 5761 5764 5766 5767 5769 5771 5773 5774 5776 5778 5779 5781 5782 5783 5785 5786 5787 5788 5789 5790 5791 5792 5793 5793 5794 5795 5795 5796 5797 5797 5798 5799 5799 5798 5797 5797 5797 5797 5797 5796
5569 5572 5574 5577 5580 5584 5588 5593 5598 5604 5610 5617 5624 5631 5637 5643 5648 5652 5656 5660 5664 5670 5674 5678 5683 5688 5693 5698 5701 5705 5708 5713 5717 5719 5721 5725 5728 5730 5733 5735 5737 5740 5742 5745 5747 5750 5752 5755 5757 5758 5761 5763 5765 5766 5768 5770 5771 5772 5774 5776 5777 5778 5780 5781 5782 5783 5784 5784 5785 5786 5786 5787 5788 5788 5789 5790 5790 5791 5791 5791 5790 5790 5789 5789 5790 5789 5788
5566 5570 5573 5575 5577 5580 5584 5589 5594 5600 5606 5613 5620 5627 5633 5638 5643 5647 5650 5654 5659 5664 5668 5671 5675 5681 5686 5690 5693 5696 5701 5706 5709 5711 5714 5718 5722 5724 5726 5729 5731 5733 5735 5738 5740 5743 5746 5748 5750 5752 5755 5757 5758 5760 5762 5763 5764 5765 5767 5769 5770 5771 5772 5773 5775 5776 5777 5778 5778 5778 5779 5780 5781 5781 5781 5782 5782 5783 5783 5783 5783 5782 5782 5782 5783 5783 5781
5563 5567 5570 5574 5577 5579 5582 5586 5590 5596 5603 5610 5617 5623 5629 5634 5638 5642 5646 5650 5654 5657 5661 5665 5669 5674 5679 5682 5686 5689 5692 5697 5700 5703 5706 5710 5714 5717 5719 5721 5723 5725 5728 5731 5733 5736 5739 5742 5744 5745 5747 5749 5751 5754 5756 5757 5758 5759 5760 5762 5763 5764 5765 5766 5767 5769 5770 5770 5770 5772 5773 5774 5773 5773 5773 5774 5774 5775 5775 5776 5776 5775 5775 5775 5776 5776 5775
5563 5566 5570 5574 5577 5579 5581 5584 5587 5592 5599 5607 5615 5621 5627 5632 5636 5640 5643 5647 5650 5653 5656 5659 5664 5668 5672 5675 5679 5683 5686 5690 5693 5695 5697 5700 5704 5707 5711 5714 5716 5718 5721 5724 5726 5728 5731 5734 5735 5736 5738 5741 5744 5745 5747 5749 5750 5750 5751 5753 5754 5756 5756 5758 5760 5762 5763 5763 5764 5765 5766 5765 5765 5765 5766 5767 5768 5768 5768 5769 5769 5768 5767 5768 5768 5769 5768
5564 5568 5571 5574 5576 5579 5581 5584 5586 5591 5597 5606 5614 5621 5626 5631 5635 5637 5640 5643 5647 5649 5652 5656 5660 5665 5667 5670 5673 5677 5681 5685 5689 5690 5691 5693 5696 5700 5704 5708 5710 5711 5714 5716 5717 5719 5722 5724 5725 5727 5730 5733 5734 5736 5738 5740 5741 5742 5743 5745 5747 5748 5749 5751 5753 5755 5755 5755 5755 5756 5756 5757 5758 5759 5760 5761 5762 5761 5761 5762 5761 5760 5760 5760 5760 5760 5760
5568 5570 5573 5575 5577 5580 5583 5586 5590 5595 5601 5609 5615 5620 5624 5628 5631 5633 5635 5640 5644 5647 5650 5654 5658 5662 5664 5666 5669 5673 5676 5680 5684 5686 5687 5688 5692 5695 5698 5700 5702 5704 5705 5707 5709 5710 5713 5714 5716 5719 5721 5723 5725 5727 5730 5732 5732 5733 5735 5737 5739 5741 5743 5745 5746 5746 5746 5747 5747 5748 5749 5751 5752 5753 5753 5754 5754 5754 5754 5753 5753 5752 5752 5752 5752 5751 5751
5574 5575 5576 5577 5579 5581 5584 5588 5593 5599 5605 5610 5615 5618 5622 5625 5627 5629 5632 5637 5641 5644 5647 5650 5654 5658 5660 5662 5665 5669 5672 5675 5680 5683 5683 5684 5687 5689 5690 5691 5693 5695 5697 5699 5701 5702 5704 5706 5708 5710 5713 5715 5718 5720 5722 5724 5724 5724 5726 5729 5731 5734 5736 5737 5738 5738 5738 5739 5741 5742 5742 5743 5744 5746 5746 5746 5746 5746 5746 5746 5745 5744 5744 5743 5743 5743 5742
5582 5582 5582 5582 5583 5585 5588 5591 5596 5601 5605 5609 5613 5616 5620 5623 5625 5627 5630 5634 5638 5641 5644 5647 5650 5654 5656 5658 5661 5665 5668 5671 5674 5677 5677 5679 5681 5681 5681 5681 5684 5687 5690 5692 5693 5695 5697 5699 5701 5703 5706 5709 5711 5713 5714 5715 5716 5717 5719 5721 5724 5727 5728 5728 5729 5730 5730 5731 5733 5734 5735 5736 5737 5739 5739 5738 5738 5738 5738 5738 5737 5736 5736 5735 5735 5734 5734
5589 5590 5590 5590 5591 5592 5594 5596 5600 5603 5606 5609 5613 5616 5619 5622 5624 5626 5629 5632 5635 5639 5642 5645 5647 5649 5652 5654 5657 5660 5663 5666 5668 5669 5671 5673 5674 5673 5671 5672 5675 5680 5683 5685 5687 5688 5690 5692 5694 5696 5699 5702 5704 5705 5706 5707 5708 5710 5712 5714 5716 5718 5718 5719 5720 5722 5723 5724 5726 5727 5728 5728 5729 5730 5730 5730 5729 5729 5730 5730 5729 5728 5728 5727 5727 5726 5726
5594 5594 5594 5595 5597 5598 5600 5602 5604 5606 5608 5611 5614 5616 5618 5621 5623 5626 5628 5631 5634 5636 5639 5642 5643 5645 5647 5650 5653 5655 5657 5660 5663 5664 5665 5667 5669 5669 5668 5668 5670 5674 5677 5679 5681 5682 5684 5686 5688 5690 5693 5695 5697 5698 5699 5700 5701 5703 5705 5707 5708 5709 5710 5711 5713 5714 5715 5716 5717 5718 5719 5719 5720 5720 5720 5720 5720 5721 5721 5721 5721 5721 5720 5720 5719 5719 5718
5597 5598 5598 5599 5601 5603 5604 5606 5607 5609 5611 5613 5615 5617 5619 5621 5623 5625 5627 5629 5632 5634 5636 5638 5640 5641 5643 5645 5648 5650 5652 5655 5657 5659 5660 5661 5663 5665 5667 5667 5667 5668 5671 5673 5675 5676 5678 5680 5682 5684 5686 5688 5689 5690 5691 5693 5694 5696 5697 5699 5700 5701 5702 5703 5704 5705 5706 5707 5708 5709 5709 5710 5710 5710 5711 5711 5711 5712 5713 5713 5713 5713 5713 5712 5712 5711 5710
5600 5601 5601 5603 5604 5605 5606 5607 5608 5610 5612 5613 5616 5618 5619 5621 5622 5623 5625 5627 5629 5631 5634 5636 5637 5639 5640 5641 5644 5646 5648 5650 5652 5653 5655 5657 5658 5660 5661 5662 5663 5664 5665 5667 5669 5671 5672 5674 5676 5678 5680 5681 5682 5683 5684 5686 5687 5689 5690 5692 5693 5693 5694 5695 5696 5697 5697 5698 5699 5699 5699 5699 5700 5701 5701 5702 5703 5704 5705 5705 5705 5705 5705 5705 5704 5704 5703
5605 5604 5604 5605 5606 5607 5608 5609 5609 5610 5611 5612 5614 5616 5617 5619 5620 5622 5623 5625 5627 5629 5631 5633 5634 5636 5637 5638 5639 5641 5643 5645 5647 5648 5650 5652 5654 5655 5656 5657 5658 5659 5660 5661 5662 5664 5665 5667 5669 5671 5672 5673 5674 5676 5677 5678 5680 5681 5682 5683 5684 5685 5685 5686 5687 5688 5688 5689 5689 5690 5690 5690 5691 5692 5693 5694 5695 5696 5696 5697 5697 5697 5697 5697 5696 5696 5696
5609 5608 5608 5608 5608 5609 5609 5610 5611 5611 5611 5611 5612 5614 5615 5617 5618 5620 5621 5623 5624 5626 5628 5629 5631 5632 5633 5634 5636 5637 5639 5640 5642 5643 5645 5647 5648 5650 5651 5652 5654 5655 5656 5657 5657 5658 5659 5660 5662 5663 5664 5665 5666 5667 5669 5670 5672 5673 5674 5675 5675 5676 5677 5677 5678 5679 5679 5680 5680 5681 5681 5682 5683 5684 5685 5686 5687 5687 5688 5688 5688 5688 5689 5689 5689 5688 5688
5611 5611 5611 5610 5610 5610 5611 5611 5611 5611 5611 5611 5612 5613 5614 5615 5617 5618 5620 5621 5622 5623 5625 5626 5627 5628 5629 5631 5632 5634 5635 5636 5638 5639 5641 5642 5644 5645 5646 5648 5649 5650 5651 5652 5653 5654 5654 5655 5656 5657 5658 5659 5659 5660 5662 5663 5664 5666 5666 5667 5667 5668 5669 5669 5670 5671 5671 5672 5672 5673 5673 5674 5674 5675 5675 5676 5677 5678 5679 5680 5680 5681 5681 5681 5681 5681 5681
5612 5612 5612 5612 5611 5611 5612 5612 5611 5612 5612 5612 5612 5612 5613 5614 5615 5616 5617 5619 5620 5621 5622 5623 5624 5625 5626 5628 5629 5630 5631 5633 5634 5635 5636 5638 5639 5640 5641 5643 5644 5646 5647 5647 5648 5648 5649 5650 5651 5652 5654 5654 5655 5655 5656 5657 5658 5659 5659 5660 5660 5661 5661 5662 5662 5663 5663 5664 5664 5664 5664 5665 5665 5666 5667 5668 5669 5670 5671 5672 5673 5674 5674 5674 5674 5673 5673
5612 5612 5612 5612 5611 5611 5611 5611 5611 5611 5612 5612 5612 5612 5613 5613 5614 5614 5615 5616 5618 5619 5620 5620 5621 5622 5623 5624 5625 5627 5628 5629 5630 5631 5632 5633 5635 5636 5637 5638 5639 5641 5642 5642 5643 5643 5644 5645 5646 5648 5649 5650 5650 5650 5651 5651 5652 5652 5653 5653 5653 5654 5654 5655 5655 5656 5656 5656 5656 5656 5656 5657 5657 5658 5658 5660 5661 5663 5664 5665 5666 5666 5667 5666 5666 5666 5665
5612 5612 5611 5611 5611 5611 5611 5611 5610 5611 5611 5611 5611 5612 5612 5612 5613 5613 5613 5614 5615 5616 5617 5617 5618 5618 5619 5620 5621 5622 5624 5625 5626 5627 5628 5629 5630 5631 5632 5633 5635 5636 5637 5637 5638 5639 5640 5641 5642 5643 5644 5644 5645 5645 5645 5645 5646 5646 5647 5647 5647 5648 5648 5649 5649 5650 5650 5650 5650 5650 5650 5650 5649 5650 5651 5653 5655 5656 5657 5658 5658 5659 5659 5659 5658 5658 5658
5611 5610 5610 5610 5610 5610 5610 5609 5609 5609 5610 5610 5610 5610 5611 5611 5611 5611 5611 5612 5612 5613 5613 5614 5614 5615 5616 5616 5617 5618 5620 5621 5622 5623 5624 5625 5626 5627 5628 5629 5630 5632 5632 5633 5633 5634 5635 5636 5637 5638 5638 5638 5639 5639 5640 5640 5640 5641 5641 5641 5641 5642 5642 5642 5643 5643 5643 5643 5643 5643 5643 5643 5643 5644 5646 5648 5649 5650 5650 5651 5651 5651 5651 5651 5651 5651 5650
5607 5608 5608 5608 5608 5608 5608 5607 5607 5607 5607 5607 5608 5608 5609 5609 5609 5610 5610 5610 5610 5611 5611 5611 5612 5612 5613 5614 5615 5616 5617 5617 5618 5619 5620 5621 5622 5622 5623 5625 5626 5627 5627 5627 5628 5629 5630 5632 5632 5632 5632 5633 5633 5634 5634 5634 5635 5635 5635 5635 5635 5636 5636 5637 5637 5637 5637 5637 5637 5637 5637 5638 5638 5639 5641 5642 5643 5643 5644 5644 5644 5644 5644 5644 5643 5643 5643
5604 5604 5604 5604 5605 5605 5605 5605 5605 5605 5605 5605 5605 5605 5606 5606 5607 5607 5608 5608 5609 5609 5610 5610 5610 5611 5612 5612 5613 5613 5614 5614 5615 5616 5617 5617 5618 5618 5619 5620 5621 5622 5622 5622 5623 5624 5625 5626 5625 5626 5627 5627 5628 5628 5629 5629 5629 5629 5630 5630 5630 5630 5631 5631 5631 5631 5631 5631 5632 5633 5633 5633 5634 5635 5635 5636 5636 5636 5637 5637 5637 5637 5636 5637 5637 5636 5636